Tracking 19170 objects as of 22-May-2018
HD Live streaming from Space Station
objects crossing your sky now

GALAXY 27 (TELSTAR 7)

Track GALAXY 27 (TELSTAR 7) now!
GALAXY 27 (TELSTAR 7) is classified as:


NORAD ID: 25922
Int'l Code: 1999-052A
Perigee: 36,114.2 km
Apogee: 36,183.0 km
Inclination: 3.9 °
Period: 1,454.3 minutes
Semi major axis: 42519 km
RCS: 15.8489 m2 (large)
Launch date: September 25, 1999
Source: International Telecommunications Satellite Organization (ITSO)
Launch site: FRENCH GUIANA (FRGUI)

24 C-band, 24 Ku-band; voice and video to North and Central America.
aabbcc
Your satellite tracking list
Your tracking list is empty




NASA's NSSDC Master Catalog

Two Line Element Set (TLE):
1 25922U 99052A   18141.69152961 -.00000195 +00000-0 +00000-0 0  9995
2 25922 003.8601 071.0926 0008088 306.2710 053.3983 00.99019039022069
Source of the keplerian elements: AFSPC